Wind_Speed
14 17 18 19 21 24 25 26 29 32 34 37 41 45 46 47 47 47 46 45 44 43 43 44 45 45 46 47 47 46 47 48 49 51 53 55 58 61 61 61 60 59 59 59
18 21 20 20 22 24 25 25 27 27 28 29 32 35 36 38 41 42 42 42 41 40 40 41 41 41 42 43 44 45 46 48 50 51 53 56 59 62 63 63 62 60 60 61
23 24 23 24 26 26 27 29 30 30 30 31 33 32 34 33 35 37 38 39 38 38 37 38 39 40 41 43 44 45 46 47 48 49 50 52 53 56 62 65 63 59 56 55
24 25 25 27 29 27 30 31 31 31 30 32 35 35 36 37 37 38 40 41 42 41 41 41 41 41 42 42 42 43 45 46 47 48 49 51 51 49 50 54 55 53 52 51
26 27 28 30 31 29 31 30 30 29 29 29 30 32 31 35 35 37 39 39 39 39 39 38 38 38 38 38 38 39 40 41 43 44 46 48 49 49 50 50 50 51 49 46
17 20 22 24 24 24 24 24 24 24 24 24 25 26 27 29 28 30 31 30 31 31 31 31 31 31 31 33 34 36 37 38 41 43 45 47 49 50 49 48 46 46 44 41
10 11 13 14 14 15 16 17 16 15 15 17 23 23 26 26 26 26 26 25 25 26 27 28 29 30 31 33 35 36 38 39 41 43 45 48 50 51 51 48 44 42 39 37
9 12 12 11 12 14 14 15 16 15 14 15 17 18 21 22 23 24 25 26 26 27 28 29 29 30 32 33 35 37 38 40 43 46 48 47 48 49 49 47 41 37 34 32
9 10 9 8 10 11 12 13 15 17 17 17 18 19 20 24 26 26 27 28 30 31 31 31 31 31 32 33 36 38 39 42 45 47 46 44 43 44 43 40 36 32 30 28
6 7 9 11 12 12 13 15 17 20 24 24 23 23 24 27 31 31 30 30 32 32 33 34 33 32 33 34 36 38 41 44 46 44 40 38 37 37 36 34 33 31 28 25
10 12 14 16 17 19 20 22 25 27 29 32 33 30 29 32 36 37 34 32 33 33 34 35 35 35 35 35 36 38 40 43 42 37 34 32 32 32 32 32 33 32 28 26
16 17 18 20 21 22 24 25 28 31 33 35 38 37 33 34 39 42 39 36 36 35 35 35 35 35 36 35 34 35 38 38 34 29 27 28 30 32 33 32 30 29 29 28
15 15 16 17 21 22 23 23 26 30 33 35 36 38 36 36 40 41 41 38 36 34 34 35 35 35 34 32 30 32 34 32 30 25 22 22 24 24 26 29 29 28 29 30
12 12 13 14 17 23 25 26 27 29 31 33 33 34 34 36 37 38 38 36 34 33 34 34 34 33 31 29 27 28 29 30 29 27 26 22 21 20 21 22 26 29 30 30
14 14 15 16 19 23 24 25 28 30 29 30 30 32 33 35 34 33 32 31 31 30 31 32 30 29 27 25 24 24 25 26 25 23 22 20 18 16 13 14 17 20 22 21
16 16 17 18 21 23 23 24 27 30 30 30 32 32 32 33 34 33 31 30 29 29 29 29 27 25 23 21 21 21 22 23 21 18 19 19 18 16 13 11 10 12 14 15
19 21 21 21 23 23 22 23 26 27 28 30 33 33 33 32 32 31 30 29 28 29 27 26 24 22 21 19 18 18 19 19 17 16 16 18 19 17 15 15 15 15 16 17
22 24 25 25 24 21 20 23 26 27 26 29 31 32 32 33 32 31 31 30 29 28 27 24 23 21 20 18 17 17 17 16 14 13 13 15 16 17 17 16 17 17 18 19
24 26 27 27 27 23 23 26 28 28 26 31 32 32 33 33 33 33 35 32 30 28 25 23 22 21 19 18 16 15 15 13 12 11 10 11 12 14 15 16 18 20 20 20
26 28 30 31 30 28 30 32 31 31 31 32 31 32 34 35 34 32 35 35 32 28 24 22 22 21 18 16 15 13 11 9 8 9 9 10 11 13 15 17 19 21 22 21
28 31 33 34 34 34 35 34 35 35 35 36 35 34 34 35 35 34 35 35 33 29 23 21 21 21 18 15 14 11 8 7 7 7 8 10 11 13 14 16 18 19 19 19
31 34 38 38 38 38 38 38 39 40 40 39 38 37 38 38 37 35 35 35 33 30 24 22 23 22 20 18 16 14 12 10 9 8 8 9 10 10 11 12 12 13 13 13
34 37 41 43 42 43 43 43 43 43 43 42 42 40 40 40 38 37 35 35 33 31 27 23 25 25 23 21 20 18 15 13 12 11 10 10 9 7 6 6 6 6 7 8
39 41 43 45 47 48 48 49 48 47 46 45 45 44 42 41 38 36 35 35 34 33 29 26 25 28 27 25 24 22 19 16 14 13 11 9 8 8 7 6 6 5 6 6
43 44 45 48 49 50 51 52 53 53 52 49 47 46 45 43 41 38 36 35 35 34 31 28 26 28 29 28 27 26 23 20 18 16 14 12 9 8 8 8 7 7 7 8
44 44 46 49 51 53 54 55 56 56 56 56 53 49 48 47 45 41 37 35 34 34 33 31 30 29 30 30 29 28 26 23 21 19 18 17 15 12 11 10 10 10 10 10
Wind_Direction
237 240 243 247 249 253 255 256 258 259 260 259 259 260 262 265 268 270 272 273 272 272 272 272 273 274 274 274 275 275 275 273 273 273 271 268 267 268 266 264 263 264 266 267
244 246 249 253 257 260 261 261 261 262 262 262 263 264 263 263 265 267 270 271 272 271 271 271 272 272 272 272 273 273 274 273 274 277 277 274 271 268 268 269 269 269 270 272
247 252 255 258 261 263 265 264 264 264 264 265 265 267 266 260 262 265 268 270 270 270 270 270 271 272 271 272 272 271 272 273 274 277 279 280 282 279 271 269 269 272 275 279
256 258 260 263 264 266 268 267 269 269 268 266 268 268 270 271 268 267 267 268 270 271 272 272 272 271 271 272 273 272 273 274 275 275 276 277 279 280 277 274 274 276 281 282
260 262 264 265 266 267 268 270 270 271 271 270 270 271 273 277 275 272 270 270 271 273 275 276 276 275 275 276 276 276 277 277 277 277 276 275 275 274 272 273 276 280 280 280
259 262 264 266 268 268 270 272 273 273 275 277 272 273 277 278 278 277 276 276 276 277 278 279 280 280 280 281 283 283 282 281 280 280 279 277 276 274 274 275 278 280 278 274
272 272 271 272 274 276 275 277 280 282 282 279 276 272 273 277 278 278 279 280 280 282 284 286 288 288 288 287 287 288 289 289 288 288 285 281 277 275 274 276 277 277 276 269
269 280 275 270 269 268 269 274 277 278 274 276 281 277 275 277 278 278 279 279 281 284 286 287 290 290 290 290 290 291 292 293 293 294 292 285 277 272 270 270 270 268 268 265
279 283 289 291 287 280 276 271 276 284 286 286 284 282 280 283 283 282 280 278 280 282 284 287 290 292 293 294 294 296 300 301 300 297 291 281 272 266 263 260 258 256 256 256
282 291 298 303 301 297 294 289 287 289 291 289 285 283 281 283 283 284 282 279 280 282 285 289 295 298 300 300 300 302 305 305 303 297 285 274 266 259 252 246 243 244 245 247
280 285 290 293 296 296 294 293 292 291 290 290 289 285 285 285 286 286 284 282 281 284 287 292 298 301 304 304 304 306 307 306 303 293 279 266 256 249 240 236 236 239 239 239
285 286 285 286 286 285 286 288 291 292 294 294 293 292 292 287 286 286 285 283 282 283 286 291 297 300 304 304 305 306 306 307 303 290 265 252 244 236 229 231 231 231 234 233
296 296 293 293 294 289 286 292 295 295 295 295 297 301 302 296 292 290 287 283 280 280 284 289 295 299 303 304 304 305 306 305 302 291 263 257 251 243 234 233 232 230 227 227
319 318 307 300 293 297 304 306 299 295 296 299 304 305 306 303 301 298 293 287 280 279 282 288 294 298 301 303 307 308 307 305 299 291 281 276 274 259 243 235 230 227 226 228
327 325 318 315 310 309 311 305 299 299 301 303 306 306 309 311 312 310 303 294 287 282 282 287 291 296 299 304 312 315 315 313 302 290 287 287 285 276 261 247 239 240 240 241
333 330 326 323 318 320 319 310 306 308 311 311 310 310 310 311 314 315 310 301 291 284 283 284 287 294 296 302 314 321 324 321 307 289 280 280 282 286 285 284 276 264 259 257
333 332 332 329 327 327 320 313 310 312 315 313 312 315 314 314 315 315 312 310 300 286 281 279 284 291 291 297 307 318 327 328 315 291 276 271 274 282 289 292 290 283 275 269
330 330 330 329 330 334 322 313 310 310 312 309 311 315 315 314 315 313 310 310 307 295 278 275 281 286 286 287 294 305 317 323 317 297 277 268 270 276 283 283 283 281 277 272
325 323 324 325 326 331 322 314 312 310 309 306 308 309 309 310 311 311 308 311 309 303 282 270 274 279 280 279 281 292 303 310 309 298 282 273 269 269 271 270 271 272 273 273
319 317 316 316 317 319 314 310 310 309 308 303 304 304 304 304 306 306 303 306 308 305 286 267 268 272 272 270 269 278 290 302 304 296 289 283 276 270 268 266 266 269 270 270
312 311 309 309 310 310 308 306 305 305 303 303 303 300 298 298 300 300 298 301 304 304 288 263 261 265 264 261 257 257 265 286 302 303 297 294 286 274 264 261 265 266 262 258
309 307 305 305 307 307 305 304 301 299 301 304 304 302 300 299 298 297 296 297 300 300 292 265 256 260 259 255 250 246 252 266 281 289 293 295 292 283 264 256 259 257 251 246
306 303 301 302 302 301 301 301 300 300 301 303 304 303 301 299 299 296 293 293 294 295 292 275 256 254 255 253 249 245 248 258 268 273 280 290 289 279 256 234 234 235 233 235
305 302 301 301 301 300 299 297 297 299 300 301 302 302 300 297 295 294 290 287 287 289 289 282 265 252 250 251 249 248 250 255 259 262 267 274 272 256 240 220 206 206 213 224
309 307 304 302 299 297 295 293 293 294 295 297 298 298 297 295 291 288 288 285 281 282 285 281 273 256 246 246 246 247 250 253 252 251 253 255 253 246 239 233 228 227 229 236
315 309 304 300 297 295 292 290 291 291 292 293 293 291 291 291 289 283 281 279 277 274 277 278 274 261 245 240 240 242 245 248 247 245 244 244 243 241 240 239 242 243 244 245
Height
5874 5876 5876 5877 5878 5879 5879 5880 5880 5879 5879 5880 5879 5878 5879 5879 5878 5877 5876 5875 5875 5874 5874 5874 5873 5873 5872 5870 5869 5867 5866 5865 5863 5862 5861 5860 5859 5857 5855 5853 5851 5851 5850 5850
5872 5872 5873 5874 5874 5874 5875 5875 5874 5874 5873 5873 5871 5871 5872 5871 5870 5869 5868 5866 5866 5865 5865 5865 5864 5863 5862 5861 5860 5858 5857 5855 5854 5852 5850 5849 5847 5845 5844 5843 5842 5841 5840 5838
5868 5868 5869 5870 5870 5870 5869 5869 5868 5868 5868 5867 5866 5866 5863 5865 5863 5863 5861 5859 5858 5857 5857 5857 5856 5855 5854 5852 5850 5849 5847 5845 5843 5841 5839 5836 5833 5832 5833 5833 5831 5830 5828 5825
5864 5864 5865 5865 5864 5865 5864 5862 5863 5862 5863 5862 5860 5860 5857 5855 5856 5855 5853 5852 5850 5849 5849 5848 5847 5846 5844 5842 5839 5837 5835 5833 5831 5829 5827 5824 5822 5821 5820 5818 5818 5816 5815 5812
5858 5859 5859 5859 5858 5858 5856 5856 5856 5855 5855 5855 5854 5852 5851 5847 5847 5845 5844 5843 5841 5840 5839 5837 5835 5834 5832 5830 5828 5826 5824 5821 5819 5816 5814 5811 5810 5809 5807 5805 5803 5802 5801 5799
5854 5853 5853 5852 5851 5851 5850 5850 5849 5849 5849 5849 5847 5846 5844 5840 5839 5836 5835 5834 5832 5830 5829 5827 5825 5824 5822 5819 5817 5815 5812 5810 5807 5804 5801 5799 5797 5795 5793 5790 5788 5787 5787 5787
5852 5850 5849 5848 5848 5847 5846 5846 5846 5845 5846 5845 5840 5839 5838 5834 5832 5830 5829 5827 5824 5822 5820 5819 5817 5815 5812 5809 5806 5803 5801 5798 5794 5791 5787 5784 5781 5778 5776 5775 5774 5774 5775 5776
5849 5849 5846 5845 5844 5843 5842 5842 5841 5841 5840 5839 5835 5834 5832 5829 5826 5825 5823 5821 5818 5816 5814 5812 5809 5806 5803 5800 5796 5793 5790 5785 5780 5775 5770 5766 5764 5762 5761 5761 5762 5763 5765 5766
5848 5846 5844 5842 5841 5840 5839 5838 5836 5836 5834 5833 5832 5830 5827 5823 5821 5819 5817 5814 5812 5809 5807 5804 5801 5798 5794 5790 5786 5781 5777 5771 5765 5759 5753 5749 5747 5747 5747 5748 5750 5752 5755 5756
5846 5845 5843 5841 5840 5838 5837 5835 5834 5832 5830 5828 5828 5826 5823 5818 5814 5812 5810 5807 5804 5801 5798 5795 5792 5788 5784 5780 5775 5769 5763 5756 5750 5743 5738 5734 5733 5734 5735 5738 5740 5743 5745 5747
5843 5843 5841 5839 5837 5836 5834 5832 5829 5827 5825 5822 5819 5821 5817 5812 5807 5803 5802 5800 5797 5794 5790 5787 5783 5779 5774 5769 5764 5758 5751 5744 5737 5730 5726 5723 5722 5723 5726 5728 5730 5733 5737 5740
5840 5839 5837 5836 5833 5831 5828 5827 5824 5821 5817 5813 5809 5810 5808 5804 5798 5794 5792 5791 5788 5785 5782 5779 5775 5771 5766 5760 5754 5748 5741 5734 5727 5722 5718 5716 5715 5715 5717 5720 5722 5725 5729 5732
5835 5834 5832 5831 5829 5826 5823 5821 5817 5813 5809 5805 5802 5802 5797 5794 5788 5784 5782 5780 5778 5776 5773 5770 5767 5762 5757 5752 5746 5740 5733 5728 5721 5717 5713 5712 5711 5710 5711 5714 5717 5720 5722 5724
5831 5830 5829 5827 5824 5820 5817 5814 5810 5806 5802 5798 5796 5793 5790 5784 5779 5774 5770 5767 5766 5766 5764 5761 5758 5754 5750 5744 5738 5732 5726 5720 5715 5712 5710 5708 5707 5707 5707 5708 5711 5713 5715 5717
5828 5827 5824 5822 5819 5816 5813 5809 5803 5799 5796 5792 5789 5784 5780 5775 5770 5765 5760 5757 5756 5755 5754 5752 5750 5747 5742 5737 5731 5725 5719 5714 5709 5706 5705 5704 5704 5704 5705 5706 5708 5710 5712 5714
5824 5822 5820 5817 5814 5810 5806 5802 5797 5794 5790 5787 5782 5778 5773 5767 5762 5757 5753 5750 5747 5745 5744 5743 5741 5739 5735 5730 5725 5719 5714 5709 5704 5701 5700 5700 5701 5701 5702 5703 5705 5707 5708 5710
5820 5817 5815 5812 5809 5805 5802 5797 5792 5788 5785 5780 5775 5772 5766 5761 5756 5751 5746 5743 5740 5737 5735 5734 5733 5731 5728 5724 5720 5715 5711 5706 5701 5698 5697 5697 5697 5698 5699 5700 5701 5703 5704 5706
5816 5812 5809 5806 5804 5801 5799 5791 5787 5783 5779 5773 5768 5764 5759 5754 5750 5744 5739 5735 5732 5728 5726 5725 5724 5723 5721 5718 5714 5711 5707 5703 5700 5696 5695 5694 5694 5694 5695 5697 5698 5698 5700 5701
5811 5808 5804 5801 5797 5794 5791 5785 5780 5775 5773 5766 5760 5755 5750 5745 5741 5738 5732 5728 5724 5720 5717 5716 5715 5715 5714 5712 5709 5707 5704 5701 5698 5696 5694 5692 5692 5691 5692 5693 5694 5694 5695 5696
5806 5802 5799 5794 5790 5787 5784 5776 5771 5767 5763 5756 5751 5746 5741 5736 5732 5731 5724 5720 5716 5712 5709 5708 5708 5708 5707 5706 5704 5703 5701 5698 5696 5694 5693 5691 5690 5689 5689 5690 5690 5690 5690 5691
5801 5797 5792 5787 5783 5779 5775 5769 5763 5758 5754 5747 5742 5737 5732 5727 5724 5720 5716 5711 5708 5704 5701 5700 5700 5701 5701 5700 5699 5698 5697 5695 5693 5692 5690 5689 5688 5687 5686 5686 5685 5685 5686 5687
5796 5791 5785 5780 5775 5773 5765 5759 5754 5749 5743 5738 5733 5728 5724 5720 5715 5711 5706 5702 5699 5696 5694 5693 5693 5693 5694 5694 5694 5694 5693 5692 5691 5690 5688 5687 5685 5684 5683 5683 5683 5682 5683 5684
5788 5783 5776 5771 5768 5761 5755 5748 5742 5737 5733 5728 5723 5719 5714 5710 5706 5702 5698 5694 5690 5688 5686 5685 5685 5685 5686 5687 5688 5688 5688 5688 5687 5687 5685 5684 5683 5682 5682 5681 5681 5681 5681 5682
5779 5772 5766 5760 5755 5749 5743 5736 5730 5724 5719 5715 5710 5706 5701 5698 5694 5691 5688 5684 5681 5679 5677 5676 5675 5676 5678 5679 5680 5681 5681 5682 5682 5682 5682 5681 5681 5680 5680 5680 5679 5680 5680 5681
5768 5762 5756 5749 5743 5737 5730 5721 5716 5710 5705 5700 5696 5691 5687 5684 5681 5678 5676 5673 5671 5669 5667 5667 5666 5666 5668 5670 5672 5673 5674 5675 5675 5676 5677 5677 5677 5677 5678 5678 5678 5678 5679 5679
5755 5749 5743 5735 5727 5721 5714 5707 5701 5696 5690 5685 5681 5677 5672 5668 5666 5664 5662 5660 5658 5657 5657 5656 5656 5656 5657 5659 5662 5664 5666 5668 5669 5670 5671 5671 5672 5673 5674 5674 5674 5675 5675 5676